BSAT-3A

Last updated on Nov. 18, 2019, 4:21 a.m. UTC

1 32019U 07036B   19321.87659889 -.00000344  00000-0  00000+0 0  9998
2 32019   0.0396 192.1421 0003959  42.9599 246.9854  1.00273100 44964
UTC
Height (km)
Latitude
Longitude
Inclination
Orbital Period
UTC large
Height (km)
Speed (km/s)
/
Latitude / Longitude
Inclination (degrees)
Orbital Period (minutes)
Azimuth
Elevation
Range (km)
Doppler Factor
iOS Compass Heading
iOS Angle

Next 30 passes for location: Hong Kong

Rise time Rise Azimuth (degrees) Set time Set Azimuth (degrees) Duration Max altitude (degrees)

No matching passes for this satellites